Location: Middlebury
(44.0153°N, 73.1678°W)
Time: 13:37:58
(UTC-04:00)

QB50P2 - Pass Details

Date: 19 June 2024
Orbit: 562 x 579 km, 98.0° (Epoch: 14 July)

Event Time Altitude Azimuth Distance (km) Brightness Sun altitude
Rises 04:12:55 0° 5° (N) 2,771 ? -8.7°
Reaches altitude 10° 04:15:10 10° 358° (N) 1,867 ? -8.4°
Maximum altitude 04:18:55 38° 290° (WNW) 863 ? -7.9°
Drops below altitude 10° 04:22:38 10° 221° (SW) 1,849 ? -7.4°
Enters shadow 04:22:48 - 220° (SW) 1,912 ? -7.4°
